When you browse on this site, cookies collect data to enhance your experience and personalize the content and advertising you see.
Visit our Privacy Policy to learn more. By continuing to use the site, you agree to this use of cookies and data.
  • In United Kingdom
  • List of Countries
  • For 7 days
  • Water Temperature
  • Satellite Maps
  • Weather Map
  • Weather Widgets
  • user-avatar
    Login

    Hourly Weather Kalat

    Today, 14 December, Friday

    Time Temperature Precipitation Wind Pressure Humidity
    00:00 -21°C° 0 mm 3 mps 467 mmHg 37%
    01:00 -21°C° 0 mm 3 mps 467 mmHg 37%
    02:00 -21°C° 0 mm 3 mps 467 mmHg 38%
    03:00 -21°C° 0 mm 3 mps 467 mmHg 38%
    04:00 -21°C° 0 mm 3 mps 467 mmHg 38%
    05:00 -21°C° 0 mm 3 mps 467 mmHg 37%
    06:00 -21°C° 0 mm 3 mps 467 mmHg 37%
    07:00 -21°C° 0 mm 3 mps 468 mmHg 37%
    08:00 -19°C° 0 mm 3 mps 468 mmHg 37%
    09:00 -16°C° 0 mm 2 mps 470 mmHg 41%
    10:00 -13°C° 0 mm 2 mps 472 mmHg 44%
    11:00 -8°C° 0 mm 1 mps 474 mmHg 48%
    12:00 -8°C° 0 mm 1 mps 474 mmHg 49%
    13:00 -7°C° 0 mm 1 mps 474 mmHg 50%
    14:00 -7°C° 0 mm 1 mps 474 mmHg 51%
    15:00 -9°C° 0 mm 1 mps 472 mmHg 52%
    16:00 -12°C° 0 mm 1 mps 470 mmHg 52%
    17:00 -16°C° 0 mm 2 mps 469 mmHg 53%
    18:00 -17°C° 0 mm 2 mps 469 mmHg 49%
    19:00 -17°C° 0 mm 2 mps 469 mmHg 45%
    20:00 -18°C° 0 mm 2 mps 469 mmHg 41%
    21:00 -19°C° 0 mm 3 mps 469 mmHg 38%
    22:00 -19°C° 0 mm 3 mps 469 mmHg 35%
    23:00 -19°C° 0 mm 3 mps 469 mmHg 32%

    Tomorrow, 15 December, Saturday

    Time Temperature Precipitation Wind Pressure Humidity
    00:00 -21°C° 0 mm 3 mps 469 mmHg 31%
    01:00 -21°C° 0 mm 3 mps 469 mmHg 31%
    02:00 -21°C° 0 mm 3 mps 469 mmHg 30%
    03:00 -21°C° 0 mm 3 mps 468 mmHg 29%
    04:00 -21°C° 0 mm 3 mps 468 mmHg 29%
    05:00 -21°C° 0 mm 3 mps 468 mmHg 28%
    06:00 -19°C° 0 mm 3 mps 469 mmHg 27%
    07:00 -19°C° 0 mm 3 mps 469 mmHg 26%
    08:00 -19°C° 0 mm 3 mps 469 mmHg 24%
    09:00 -15°C° 0 mm 2 mps 471 mmHg 31%
    10:00 -12°C° 0 mm 2 mps 473 mmHg 38%
    11:00 -7°C° 0 mm 1 mps 475 mmHg 44%
    12:00 -7°C° 0 mm 1 mps 475 mmHg 46%
    13:00 -6°C° 0 mm 1 mps 475 mmHg 48%
    14:00 -4°C° 0 mm 1 mps 475 mmHg 50%
    15:00 -8°C° 0 mm 1 mps 473 mmHg 49%
    16:00 -10°C° 0 mm 1 mps 471 mmHg 48%
    17:00 -13°C° 0 mm 1 mps 470 mmHg 48%
    18:00 -15°C° 0 mm 2 mps 470 mmHg 45%
    19:00 -16°C° 0 mm 2 mps 470 mmHg 42%
    20:00 -17°C° 0 mm 3 mps 470 mmHg 39%
    21:00 -17°C° 0 mm 3 mps 470 mmHg 36%
    22:00 -18°C° 0 mm 3 mps 470 mmHg 34%
    23:00 -18°C° 0 mm 3 mps 470 mmHg 32%

    Day after tomorrow, 16 December, Sunday

    Time Temperature Precipitation Wind Pressure Humidity
    00:00 -18°C° 0 mm 3 mps 470 mmHg 31%
    01:00 -18°C° 0 mm 3 mps 470 mmHg 30%
    02:00 -18°C° 0 mm 3 mps 470 mmHg 29%
    03:00 -18°C° 0 mm 3 mps 470 mmHg 29%
    04:00 -18°C° 0 mm 3 mps 470 mmHg 29%
    05:00 -18°C° 0 mm 3 mps 469 mmHg 29%
    06:00 -18°C° 0 mm 3 mps 470 mmHg 30%
    07:00 -18°C° 0 mm 3 mps 470 mmHg 30%
    08:00 -18°C° 0 mm 3 mps 471 mmHg 31%
    09:00 -14°C° 0 mm 2 mps 472 mmHg 36%
    10:00 -10°C° 0 mm 2 mps 474 mmHg 42%
    11:00 -7°C° 0 mm 1 mps 476 mmHg 47%
    12:00 -6°C° 0 mm 1 mps 476 mmHg 49%
    13:00 -4°C° 0 mm 1 mps 476 mmHg 51%
    14:00 -4°C° 0 mm 1 mps 476 mmHg 53%
    15:00 -7°C° 0 mm 1 mps 474 mmHg 53%
    16:00 -10°C° 0 mm 2 mps 473 mmHg 52%
    17:00 -14°C° 0 mm 2 mps 471 mmHg 52%
    18:00 -14°C° 0 mm 2 mps 471 mmHg 49%
    19:00 -16°C° 0 mm 3 mps 471 mmHg 47%
    20:00 -17°C° 0 mm 3 mps 470 mmHg 44%
    21:00 -17°C° 0 mm 3 mps 470 mmHg 42%
    22:00 -17°C° 0 mm 3 mps 470 mmHg 40%
    23:00 -17°C° 0 mm 3 mps 470 mmHg 38%

    17 December, Monday

    Time Temperature Precipitation Wind Pressure Humidity
    00:00 -17°C° 0 mm 3 mps 470 mmHg 37%
    01:00 -17°C° 0 mm 3 mps 470 mmHg 35%
    02:00 -17°C° 0 mm 3 mps 470 mmHg 34%
    03:00 -17°C° 0 mm 3 mps 470 mmHg 33%
    04:00 -17°C° 0 mm 3 mps 470 mmHg 32%
    05:00 -18°C° 0 mm 3 mps 469 mmHg 32%
    06:00 -17°C° 0 mm 3 mps 470 mmHg 30%
    07:00 -17°C° 0 mm 3 mps 470 mmHg 29%
    08:00 -17°C° 0 mm 3 mps 470 mmHg 28%
    09:00 -14°C° 0 mm 2 mps 472 mmHg 34%
    10:00 -10°C° 0 mm 2 mps 474 mmHg 40%
    11:00 -7°C° 0 mm 1 mps 475 mmHg 46%
    12:00 -6°C° 0 mm 1 mps 475 mmHg 47%
    13:00 -6°C° 0 mm 1 mps 475 mmHg 49%
    14:00 -4°C° 0 mm 1 mps 475 mmHg 50%
    15:00 -7°C° 0 mm 1 mps 474 mmHg 50%
    16:00 -10°C° 0 mm 1 mps 472 mmHg 50%
    17:00 -12°C° 0 mm 1 mps 470 mmHg 50%
    18:00 -12°C° 0 mm 1 mps 470 mmHg 48%
    19:00 -14°C° 0 mm 2 mps 471 mmHg 47%
    20:00 -15°C° 0 mm 2 mps 471 mmHg 46%
    21:00 -16°C° 0 mm 3 mps 471 mmHg 43%
    22:00 -16°C° 0 mm 3 mps 471 mmHg 41%
    23:00 -16°C° 0 mm 3 mps 470 mmHg 38%

    18 December, Tuesday

    Time Temperature Precipitation Wind Pressure Humidity
    00:00 -17°C° 0 mm 3 mps 470 mmHg 37%
    01:00 -17°C° 0 mm 3 mps 470 mmHg 35%
    02:00 -17°C° 0 mm 3 mps 469 mmHg 33%
    03:00 -17°C° 0 mm 3 mps 469 mmHg 32%
    04:00 -17°C° 0 mm 3 mps 469 mmHg 32%
    05:00 -17°C° 0 mm 3 mps 469 mmHg 31%
    06:00 -17°C° 0 mm 3 mps 469 mmHg 31%
    07:00 -16°C° 0 mm 3 mps 470 mmHg 30%
    08:00 -16°C° 0 mm 3 mps 470 mmHg 30%
    09:00 -13°C° 0 mm 3 mps 472 mmHg 37%
    10:00 -9°C° 0 mm 2 mps 473 mmHg 43%
    11:00 -6°C° 0 mm 2 mps 475 mmHg 50%
    12:00 -3°C° 0 mm 1 mps 475 mmHg 50%
    13:00 -3°C° 0 mm 1 mps 475 mmHg 50%
    14:00 -2°C° 0 mm 1 mps 475 mmHg 50%
    15:00 -4°C° 0 mm 1 mps 474 mmHg 51%
    16:00 -6°C° 0 mm 1 mps 473 mmHg 52%
    17:00 -8°C° 0 mm 1 mps 472 mmHg 54%
    18:00 -9°C° 0 mm 2 mps 471 mmHg 54%
    19:00 -10°C° 0 mm 2 mps 471 mmHg 55%
    20:00 -12°C° 0 mm 3 mps 471 mmHg 56%
    21:00 -13°C° 0 mm 3 mps 470 mmHg 54%
    22:00 -14°C° 0 mm 3 mps 470 mmHg 52%
    23:00 -15°C° 0 mm 4 mps 469 mmHg 50%

    19 December, Wednesday

    Time Temperature Precipitation Wind Pressure Humidity
    00:00 -15°C° 0 mm 4 mps 469 mmHg 49%
    01:00 -15°C° 0 mm 4 mps 468 mmHg 47%
    02:00 -16°C° 0 mm 4 mps 468 mmHg 45%
    03:00 -16°C° 0 mm 4 mps 468 mmHg 43%
    04:00 -16°C° 0 mm 4 mps 468 mmHg 41%
    05:00 -16°C° 0 mm 4 mps 467 mmHg 39%
    06:00 -16°C° 0 mm 4 mps 468 mmHg 39%
    07:00 -16°C° 0 mm 4 mps 468 mmHg 38%
    08:00 -16°C° 0 mm 4 mps 468 mmHg 38%
    09:00 -14°C° 0 mm 4 mps 470 mmHg 44%
    10:00 -10°C° 0 mm 4 mps 471 mmHg 51%
    11:00 -8°C° 0 mm 4 mps 473 mmHg 57%
    12:00 -8°C° 0 mm 4 mps 473 mmHg 58%
    13:00 -7°C° 0 mm 4 mps 473 mmHg 59%
    14:00 -7°C° 0 mm 4 mps 473 mmHg 60%
    15:00 -8°C° 0 mm 3 mps 471 mmHg 60%
    16:00 -12°C° 0 mm 3 mps 470 mmHg 59%
    17:00 -14°C° 0 mm 3 mps 468 mmHg 58%
    18:00 -15°C° 0 mm 3 mps 469 mmHg 57%
    19:00 -15°C° 0 mm 3 mps 469 mmHg 57%
    20:00 -16°C° 0 mm 3 mps 469 mmHg 56%
    21:00 -16°C° 0 mm 3 mps 469 mmHg 56%
    22:00 -15°C° 0 mm 2 mps 469 mmHg 56%
    23:00 -15°C° 0 mm 2 mps 469 mmHg 56%
    Show more